Location: Columbus
(29.5618°N, 96.6770°W)
Time: 19:32:39
(UTC-06:00)

Daily predictions for brighter satellites

Satellite Brightness Start Highest point End
(mag) Time Altitude Azimuth Time Altitude Azimuth Time Altitude Azimuth
OAO 3 Rocket 3.7 17:44:05 10° SW 17:48:50 52° SSE 17:53:38 10° ENE
Tsikada Rocket 4.0 17:45:21 10° N 17:51:31 87° E 17:57:43 10° S
GPS 2-05 Rocket1 2.6 17:49:34 10° WSW 17:52:42 78° SSE 17:55:55 10° ENE
Ariane Rocket 3.0 17:49:25 10° SSE 17:54:27 69° ENE 17:59:30 10° N
Cosmos 2346 Rocket 4.5 17:49:12 10° N 17:55:19 65° E 18:01:28 10° SSE
Cosmos 1703 Rocket 3.8 17:51:54 10° SSE 17:56:13 49° E 18:00:31 10° NNE
MTI 4.3 17:54:50 10° NNE 17:57:52 38° E 18:00:54 10° S
Tiangong 1 2.3 17:58:42 10° SSW 18:00:46 21° SE 18:02:49 10° E
CZ-2C R/B 3.7 17:58:08 10° NNE 18:02:39 85° ESE 18:07:14 10° SSW
Cosmos 304 Rocket 3.9 17:58:08 10° N 18:02:51 54° ENE 18:07:30 10° SSE
USA 234 3.3 17:57:16 10° NE 18:03:49 75° SE 18:10:20 10° SW
Cosmos 841 Rocket 3.8 18:02:32 10° N 18:07:36 46° ENE 18:12:37 10° SE
COSMOS 2406 4.3 18:07:05 10° NNW 18:12:35 50° WSW 18:18:01 10° S
CSL-04 Debris 4.5 18:09:39 10° S 18:15:04 73° WSW 18:20:29 10° NNW
Cosmos 1633 3.2 18:12:07 10° NNE 18:15:30 34° E 18:18:52 10° SSE
Okean 2 Rocket 4.2 18:13:04 10° NNE 18:16:37 22° ENE 18:20:08 10° SE
Cosmos 1464 Rocket 4.0 18:14:00 10° S 18:19:57 57° E 18:25:56 10° NNE
Meteor 1-14 Rocket 4.3 18:19:48 10° N 18:25:25 80° W 18:30:57 10° S
Cosmos 2369 Rocket 4.0 18:24:17 10° ESE 18:25:17 11° ESE 18:25:17 11° ESE
Cosmos 1908 Rocket 3.6 18:23:33 10° N 18:27:53 84° W 18:32:12 10° S
Cosmos 2297 3.8 18:22:45 10° SSW 18:28:26 84° WNW 18:34:12 10° NNE
Cosmos 1354 Rocket 4.1 18:23:17 10° SSW 18:28:35 81° WNW 18:33:52 10° NNE
SKYMED 2 3.5 18:24:48 10° NNE 18:29:09 89° ESE 18:33:29 10° SSW
IRS-1A Rocket 4.3 18:23:41 10° SSE 18:29:32 88° ENE 18:35:18 10° NNW
ALOS 2.8 18:25:45 10° SE 18:29:56 34° ENE 18:34:08 10° N
Cosmos 1833 Rocket 3.2 18:26:03 10° N 18:31:09 35° ENE 18:36:15 10° SE
SPOT 3 Rocket 3.9 18:26:31 10° SE 18:31:25 43° ENE 18:36:19 10° N
Cosmos 2278 Rocket 4.1 18:28:29 10° WSW 18:33:15 28° WNW 18:38:04 10° N
Cosmos 972 4.4 18:29:00 10° NNW 18:33:55 81° WSW 18:38:49 10° S
ERBS 2.6 18:33:21 10° NW 18:36:44 68° SW 18:40:07 10° SSE
CZ-4 R/B 2.6 18:37:18 10° S 18:41:01 42° W 18:44:42 10° NNW
Meteor 1-11 Rocket 4.3 18:38:10 10° NNE 18:43:24 34° ENE 18:48:30 10° SE
USA 229 DEB 4.1 18:38:12 10° S 18:44:21 39° ESE 18:47:40 24° ENE
USA 229 4.1 18:38:20 10° S 18:44:27 39° ESE 18:47:43 24° ENE
Sich 1 Rocket 4.0 18:40:38 10° NNW 18:45:01 64° W 18:49:27 10° S
Cosmos 1441 Rocket 3.1 18:42:32 10° S 18:46:28 67° E 18:49:22 17° NNE
Cosmos 1606 4.3 18:43:05 10° SSW 18:46:34 35° W 18:50:03 10° NNW
Okean 1-7 3.9 18:44:38 10° SSW 18:48:52 51° W 18:53:09 10° N
NOAA 12 4.0 18:47:00 10° SSE 18:52:14 62° ENE 18:57:29 10° N
MOS 1 4.3 18:46:37 10° SSE 18:52:19 89° ENE 18:58:03 10° NNW
CZ-4C R/B 3.7 19:03:16 10° N 19:09:18 31° NE 19:09:18 31° NE
Thor Agena Rocket 3.4 19:08:07 32° NNE 19:10:28 69° ESE 19:15:35 10° S
ERS-2 4.4 19:13:55 10° SSW 19:17:02 26° W 19:20:10 10° NW
Cosmos 1602 3.9 19:14:17 10° NNW 19:18:06 68° W 19:21:55 10° S
Cosmos 2082 Rocket 2.2 19:13:46 10° NNW 19:19:28 84° WSW 19:25:05 10° SSE
ISS -1.3 19:21:08 10° SSW 19:21:54 16° SSW 19:21:54 16° SSW
FengYun 1-2 T 4.1 19:24:01 10° SSE 19:30:01 66° NNE 19:35:00 10° N
OAO 3 Rocket 3.6 19:27:32 10° W 19:32:07 57° NNW 19:32:07 57° NNW
Cosmos 1634 Rocket 4.0 19:27:40 10° S 19:33:00 60° SE 19:33:00 60° SE
Cosmos 968 Rocket 4.5 19:30:55 10° SW 19:35:49 44° WNW 19:38:30 24° NNW
Nadezhda 4 Rocket 3.9 19:33:32 10° N 19:39:39 79° W 19:45:45 10° S
BREEZE-M R/B 4.1 19:36:32 10° NW 19:38:43 41° NW 19:38:43 41° NW
Delta 168 4.4 19:54:32 10° WSW 19:59:45 61° SSW 19:59:45 61° SSW
Cosmos 2369 Rocket 3.4 20:03:47 10° SSW 20:07:10 37° SW 20:07:10 37° SW
CZ-4C R/B 4.4 20:51:11 10° NW 20:54:35 29° NW 20:54:35 29° NW
